Home > Weather > Izmir > Past weeks

Flag for Turkey Past Weather in Izmir, Turkey — Yesterday and Last 2 Weeks

Now
61 °F

Passing clouds.


Feels Like: 61 °F
Forecast: 56 / 88 °F
Wind: 5 mph from Northwest

Location: Izmir / Adnan Menderes

Current Time: May 29, 2016 at 3:13:42 AM

Latest Report: May 29, 2016 at 2:20 AM


Visibility: N/A

Pressure: 29.95 "Hg

Humidity: 63%

Dew Point: 48 °F

Location of IzmirLocation

Past Weather in Izmir — Graph

°F

Izmir Temperature Yesterday

Maximum temperature yesterday: 77 °F (at 1:50 PM)
Minimum temperature yesterday: 59 °F (at 4:50 AM)
Average temperature yesterday: 69 °F

High & Low Weather Summary for the Past Weeks

 TemperatureHumidityPressure
High81 °F (May 16, 2:50 PM)94% (May 14, 6:50 AM)30.01 "Hg (May 14, 6:50 AM)
Low48 °F (May 20, 3:50 AM)25% (May 19, 12:50 PM)29.74 "Hg (May 25, 3:20 AM)
Average67 °F61%29.89 "Hg
* Reported May 14 1:20 AM — May 29 1:50 AM, Izmir, Weather by CustomWeather, © 2016

Note: Actual official high and low records may vary slightly from our data, if they occured in-between our weather recording intervals... More about our weather records

Advertising

Izmir Weather History for the Previous 24 Hours

Scroll right to see more
 ConditionsComfort  
Time TempWeatherWind HumidityBarometerVisibility
1:50 AM
Sun, May 29
59 °FClear.5 mph68%29.95 "Hg10 mi
1:20 AM64 °FPassing clouds.5 mph56%29.95 "HgN/A
12:50 AM66 °FClear.7 mph52%29.95 "Hg10 mi
12:20 AM68 °FClear.7 mph49%29.95 "Hg10 mi
11:50 PM
Sat, May 28
68 °FClear.8 mph49%29.95 "Hg10 mi
11:20 PM70 °FClear.9 mph46%29.95 "Hg10 mi
10:50 PM68 °FClear.10 mph60%29.95 "Hg10 mi
10:20 PM70 °FClear.10 mph57%29.95 "Hg10 mi
9:50 PM70 °FClear.9 mph57%29.95 "Hg10 mi
9:20 PM70 °FSunny.13 mph46%29.92 "Hg10 mi
8:50 PM72 °FSunny.14 mph44%29.92 "Hg10 mi
7:50 PM75 °FPassing clouds.16 mph39%29.92 "HgN/A
7:20 PM75 °FPassing clouds.15 mph41%29.92 "HgN/A
6:50 PM75 °FPassing clouds.18 mph39%29.92 "HgN/A
6:20 PM77 °FPassing clouds.17 mph39%29.92 "HgN/A
5:50 PM77 °FPassing clouds.16 mph42%29.92 "HgN/A
5:20 PM77 °FScattered clouds.15 mph36%29.92 "HgN/A
4:50 PM77 °FScattered clouds.17 mph42%29.92 "HgN/A
4:20 PM77 °FScattered clouds.16 mph44%29.92 "HgN/A
3:50 PM77 °FScattered clouds.20 mph39%29.92 "HgN/A
3:20 PM77 °FScattered clouds.17 mph39%29.92 "HgN/A
2:50 PM77 °FScattered clouds.21 mph42%29.92 "HgN/A
2:20 PM77 °FScattered clouds.21 mph39%29.95 "HgN/A
1:50 PM77 °FScattered clouds.21 mph42%29.95 "HgN/A
1:20 PM75 °FScattered clouds.21 mph44%29.95 "HgN/A
12:50 PM75 °FScattered clouds.18 mph44%29.95 "HgN/A
12:20 PM75 °FScattered clouds.17 mph44%29.95 "HgN/A
11:50 AM73 °FScattered clouds.17 mph47%29.95 "HgN/A
11:20 AM72 °FScattered clouds.16 mph50%29.95 "HgN/A
10:50 AM73 °FScattered clouds.15 mph44%29.95 "HgN/A
10:20 AM72 °FSunny.16 mph47%29.95 "Hg10 mi
9:50 AM70 °FPassing clouds.15 mph50%29.95 "HgN/A
9:20 AM68 °FSunny.17 mph53%29.98 "Hg10 mi
8:50 AM68 °FSunny.15 mph56%29.98 "Hg10 mi
8:20 AM66 °FSunny.14 mph60%29.98 "Hg10 mi
7:50 AM64 °FSunny.16 mph60%29.95 "Hg10 mi
7:20 AM64 °FSunny.12 mph64%29.95 "Hg10 mi
6:50 AM63 °FPassing clouds.9 mph68%29.95 "HgN/A
6:20 AM61 °FClear.9 mph72%29.95 "Hg10 mi
5:50 AM59 °FClear.9 mph77%29.95 "Hg10 mi
5:20 AM61 °FClear.10 mph72%29.95 "Hg10 mi
4:50 AM59 °FClear.9 mph77%29.95 "Hg10 mi
4:20 AM61 °FClear.10 mph72%29.95 "Hg10 mi
3:50 AM61 °FClear.9 mph72%29.95 "Hg10 mi
3:20 AM63 °FClear.8 mph68%29.95 "Hg10 mi
Weather by CustomWeather, © 2016

See weather overviewHow to use our weather pages